Pasco, WA
on Sunday, November 4, 2012

Sunday
Previous Day Next Day
Daily Summary
 ActualAverageRecord
Temperature
Mean Temperature °F 45°F  
Max Temperature 71°F 56°F 71°F (2007)
Min Temperature 47°F 35°F 14°F (2002)
Degree Days
Heating Degree Days 6 20  
Month to date heating degree days 46 77  
Since 1 July heating degree days 490 595  
Cooling Degree Days 0 0  
Month to date cooling degree days 0 0  
Year to date cooling degree days 788 710  
Growing Degree Days8 (Base °F )  
Moisture
Dew Point 51°F   
Average Humidity 74    
Maximum Humidity 100    
Minimum Humidity 47    
Precipitation
Precipitation 0.00 in 0.03 in 0.35 in (1973)
Month to date precipitation 0.08 0.11  
Year to date precipitation 7.54 6.64  
Snow
Snow 0.00 in in in ()
Snow Depth 0.00 in   
Wind
Wind Speed 6 mph   
Max Wind Speed 16 mph   
Max Gust Speed 18 mph   
Visibility 10 miles   
Events     

Key: T is trace of precipitation, MM is missing value
Source: NWS Daily Summary
Time(PST)TemperatureDew PointHumidity Pressure Visibility Wind DirectionWind SpeedGust SpeedPrecipitationEvents Conditions
12:53 AM 59.0°F 50.0°F 72% 30.18 in 10.0 miles WSW 8.1 mph - N/A   Overcast
1:53 AM 59.0°F 50.0°F 72% 30.19 in 10.0 miles WSW 6.9 mph - N/A   Overcast
1:53 AM 57.0°F 50.0°F 77% 30.20 in 10.0 miles Calm Calm - N/A   Overcast
2:53 AM 53.1°F 50.0°F 89% 30.20 in 10.0 miles North 3.5 mph - N/A   Scattered Clouds
3:53 AM 50.0°F 48.0°F 93% 30.23 in 10.0 miles NW 5.8 mph - N/A   Partly Cloudy
4:53 AM 48.9°F 46.9°F 93% 30.24 in 10.0 miles East 3.5 mph - N/A   Clear
5:53 AM 46.9°F 46.0°F 97% 30.22 in 10.0 miles East 4.6 mph - N/A   Scattered Clouds
6:53 AM 48.9°F 46.9°F 93% 30.26 in 10.0 miles North 5.8 mph - N/A   Overcast
7:53 AM 52.0°F 50.0°F 93% 30.28 in 10.0 miles East 3.5 mph - N/A   Overcast
8:53 AM 57.9°F 52.0°F 81% 30.28 in 10.0 miles SE 4.6 mph - N/A   Overcast
9:53 AM 60.1°F 52.0°F 75% 30.28 in 10.0 miles SSE 3.5 mph - N/A   Overcast
10:53 AM 64.9°F 53.1°F 65% 30.28 in 10.0 miles ESE 3.5 mph - N/A   Overcast
11:53 AM 66.0°F 53.1°F 63% 30.27 in 10.0 miles Calm Calm - N/A   Overcast
12:53 PM 66.9°F 51.1°F 57% 30.27 in 10.0 miles Calm Calm - N/A   Mostly Cloudy
1:53 PM 69.1°F 48.9°F 49% 30.27 in 10.0 miles South 8.1 mph - N/A   Mostly Cloudy
2:53 PM 69.1°F 48.9°F 49% 30.27 in 10.0 miles SSW 5.8 mph - N/A   Mostly Cloudy
3:53 PM 68.0°F 52.0°F 56% 30.27 in 10.0 miles WSW 8.1 mph - N/A   Clear
4:53 PM 64.9°F 52.0°F 63% 30.26 in 10.0 miles South 9.2 mph - N/A   Scattered Clouds
5:53 PM 63.0°F 53.1°F 70% 30.27 in 10.0 miles SSW 6.9 mph - N/A   Clear
6:53 PM 63.0°F 53.1°F 70% 30.26 in 10.0 miles South 8.1 mph - N/A   Clear
7:53 PM 63.0°F 53.1°F 70% 30.25 in 10.0 miles South 11.5 mph - N/A   Clear
9:53 PM 62.1°F 53.1°F 72% 30.27 in 10.0 miles South 15.0 mph - N/A   Clear
10:53 PM 61.0°F 53.1°F 75% 30.26 in 10.0 miles SSW 13.8 mph - N/A   Clear
Moon Phase
Nov. 04 Nov. 06 Nov. 13 Nov. 20 Nov. 28
Sunrise:06:42 AM (PST) Moon Rise:09:17 PM (PST)11/4
Sunset:04:36 PM (PST) Moon Set:11:33 AM (PST)11/4

Copyright © 2014 The Weather Underground, Inc.